[[[{"header":{"parameterUnit":"kt","parameterCategory":2,"dx":1,"dy":1,"la1":30.253999710083008,"la2":30.299108505249023,"lo1":-89.0895004272461,"lo2":-89.04439544677734,"nx":28,"ny":28,"refTime":"2022-09-23T21:00:00:Z","depth":0,"parameterNumber":1,"parameterNumberName":"U-component_of_WINDS"},"data":[-3.7288,-3.7433,-3.7438,-3.7606,-3.7639,-3.7754,-3.7797,-3.7853,-3.7898,-3.8036,-3.8116,-3.8136,-3.8183,-3.8279,-3.8366,-3.8373,-3.841,-3.8458,-3.8458,-3.8238,-3.8208,-3.8179,-3.8145,-3.8466,-3.8466,-3.8685,-3.8687,-3.8689,-3.7127,-3.716,-3.725,-3.7341,-3.7418,-3.7375,-3.7443,-3.7511,-3.7615,-3.7672,-3.7751,-3.7873,-3.7969,-3.8001,-3.8094,-3.8162,-3.8147,-3.8187,-3.8183,-3.8192,-3.7956,-3.792,-3.8198,-3.8198,-3.8198,-3.8198,-3.8198,-3.8198,-3.6834,-3.6921,-3.6979,-3.7076,-3.7123,-3.7183,-3.7267,-3.7289,-3.7377,-3.7475,-3.7463,-3.7581,-3.7639,-3.7753,-3.7793,-3.7885,-3.7841,-3.7887,-3.7898,-3.791,-3.7924,-3.7609,-3.7901,-3.79,-3.7899,-3.7899,-3.7898,0,-3.6622,-3.662,-3.6707,-3.6795,-3.6866,-3.6935,-3.6999,-3.705,-3.7047,-3.712,-3.7226,-3.7287,-3.7409,-3.7509,-3.7597,-3.7629,-3.7592,-3.7588,-3.762,-3.7628,-3.7625,-3.763,-3.7248,-3.758,-3.7577,-3.7575,-3.7574,-3.7573,-3.6329,-3.6429,-3.6491,-3.6551,-3.6587,-3.6684,-3.6743,-3.6732,-3.6795,-3.6872,-3.6949,-3.7048,-3.7128,-3.7297,-3.732,-3.7411,-3.7394,-3.7521,-3.7408,-3.7412,-3.7398,-3.7393,-3.7403,-3.7544,-3.7547,-3.755,-3.7553,0,-3.6164,-3.617,-3.6327,-3.6378,-3.6394,-3.65,-3.6543,-3.6629,-3.664,-3.676,-3.6787,-3.6805,-3.6909,-3.6913,-3.7032,-3.703,-3.7206,-3.7186,-3.7186,-3.7182,-3.7297,-3.7287,-3.7666,-3.7716,-3.7382,-3.7385,-3.7388,0,-3.5917,-3.6049,-3.6051,-3.6141,-3.6288,-3.6273,-3.6418,-3.6442,-3.6491,-3.6586,-3.6543,-3.6632,-3.6622,-3.6712,-3.671,-3.6854,-3.6875,-3.6883,-3.6882,-3.6889,-3.6888,-3.6923,-3.6908,-3.6872,-3.687,-3.6868,-3.6867,0,-3.5658,-3.5814,-3.5961,-3.5997,-3.6065,-3.6134,-3.6165,-3.622,-3.6278,-3.6353,-3.639,-3.6479,-3.6528,-3.6597,-3.6594,-3.6517,-3.6769,-3.6662,-3.6777,-3.6777,-3.6834,-3.683,-3.7164,-3.6864,-3.6864,-3.6863,-3.6862,0,-3.546,-3.5536,-3.5748,-3.5803,-3.5845,-3.5941,-3.6028,-3.6111,-3.6171,-3.6176,-3.6235,-3.6207,-3.6332,-3.6227,-3.6398,-3.6299,-3.635,-3.6369,-3.6377,-3.639,-3.6272,-3.6461,-3.6778,-3.6812,-3.6399,-3.6396,-3.6392,0,-3.5163,-3.5378,-3.5367,-3.5569,-3.5669,-3.5614,-3.5721,-3.5776,-3.5791,-3.5878,-3.5894,-3.5993,-3.5915,-3.5947,-3.6031,-3.6053,-3.6181,-3.6035,-3.6162,-3.6167,-3.6149,-3.644,-3.6487,-3.6708,-3.6343,-3.6348,-3.6352,0,-3.4934,-3.5014,-3.5051,-3.5092,-3.5162,-3.5245,-3.5368,-3.5463,-3.5521,-3.5587,-3.569,-3.5829,-3.5776,-3.5828,-3.5815,-3.5903,-3.6094,-3.5834,-3.5836,-3.5882,-3.6318,-3.6362,-3.6399,-3.6065,-3.6071,-3.6076,-3.6312,0,-3.4635,-3.4743,-3.4842,-3.4934,-3.4998,-3.5124,-3.5127,-3.5194,-3.5174,-3.5187,-3.5338,-3.5384,-3.5481,-3.5523,-3.5505,-3.5705,-3.5672,-3.5614,-3.5513,-3.5703,-3.5782,-3.5813,-3.5396,-3.5393,-3.5391,-3.5389,0,0,-3.435,-3.4505,-3.4488,-3.4607,-3.466,-3.4601,-3.4736,-3.4781,-3.4874,-3.4912,-3.4855,-3.5058,-3.5098,-3.5282,-3.5341,-3.538,-3.5416,-3.535,-3.5612,-3.5637,-3.566,-3.5744,-3.5777,-3.5384,-3.5384,-3.5383,-3.5382,0,-3.4242,-3.4283,-3.4416,-3.4461,-3.4528,-3.4535,-3.4567,-3.4624,-3.4638,-3.4786,-3.4736,-3.4826,-3.4989,-3.5038,-3.5084,-3.5327,-3.5285,-3.5356,-3.5487,-3.5587,-3.5615,-3.564,-3.5728,-3.576,-3.5376,-3.5376,-3.5376,0,-3.4017,-3.4058,-3.4122,-3.424,-3.4284,-3.4388,-3.4282,-3.4396,-3.4473,-3.4402,-3.455,-3.4576,-3.4641,-3.4814,-3.4892,-3.4842,-3.5165,-3.5063,-3.5079,-3.5088,-3.5185,-3.5219,-3.525,-3.4852,-3.485,-3.4848,0,0,-3.3923,-3.4023,-3.4063,-3.4217,-3.4248,-3.426,-3.4315,-3.4301,-3.4361,-3.4385,-3.4418,-3.4478,-3.4572,-3.4634,-3.4723,-3.4912,-3.4925,-3.4998,-3.5023,-3.5043,-3.5063,-3.5166,-3.52,-3.4841,-3.4841,-3.4841,0,0,-3.3878,-3.3931,-3.39,-3.4079,-3.4137,-3.4188,-3.4282,-3.4245,-3.4325,-3.4311,-3.4293,-3.4308,-3.4469,-3.4497,-3.4404,-3.4687,-3.4586,-3.4608,-3.4663,-3.4694,-3.4719,-3.4709,-3.4302,0,0,0,0,0,-3.3769,-3.3924,-3.3896,-3.3926,-3.4075,-3.4203,-3.4222,-3.4211,-3.4139,-3.4214,-3.4235,-3.4186,-3.4443,-3.436,-3.439,-3.4495,-3.4752,-3.4768,-3.4783,-3.4897,-3.493,-3.4958,0,0,0,0,0,0,-3.378,-3.3817,-3.3892,-3.3949,-3.3982,-3.4197,-3.4075,-3.4076,-3.4131,-3.412,-3.4183,-3.4188,-3.418,-3.4343,-3.4371,-3.4471,-3.4292,-3.4758,-3.4771,-3.4784,-3.4909,-3.4935,-3.4958,0,0,0,0,0,-3.379,-3.3819,-3.4061,-3.3946,-3.3975,-3.3997,-3.4069,-3.4069,-3.4111,-3.4144,-3.4147,-3.4098,-3.4183,-3.4206,-3.436,-3.4458,-3.4273,-3.4283,-3.4767,-3.4777,-3.4787,-3.4922,0,0,0,0,0,0,-3.3797,-3.3821,-3.4067,-3.4075,-3.3886,-3.3985,-3.4,-3.4063,-3.4132,-3.4137,-3.4057,-3.4047,-3.4188,-3.4204,-3.4222,-3.4455,-3.4257,-3.4268,-3.4275,-3.4775,-3.4783,-3.4791,0,0,0,0,0,0,-3.3804,-3.3828,-3.4071,-3.3996,-3.3996,-3.3973,-3.3987,-3.4115,-3.4134,-3.4041,-3.4035,-3.4052,-3.4161,-3.4204,-3.4217,-3.4419,-3.4245,-3.4255,-3.4262,-3.4267,-3.4782,-3.4788,0,0,0,0,0,0,-3.3814,-3.3835,-3.3994,-3.3994,-3.3993,-3.4086,-3.4087,-3.424,-3.4069,-3.4039,-3.4054,-3.4046,-3.4163,-3.4176,-3.4215,-3.4411,-3.4417,-3.4246,-3.4253,-3.4257,-3.4261,0,0,0,0,0,0,0,-3.3822,-3.3688,-3.4017,-3.3992,-3.3991,-3.4153,-3.4155,-3.4157,-3.4068,-3.4062,-3.4055,-3.405,-3.4188,-3.4199,-3.421,-3.4404,0,0,-3.4245,-3.425,0,0,0,0,0,0,0,0,-3.368,-3.3686,-3.4017,-3.4019,-3.4021,-3.4153,-3.4155,-3.4157,-3.4067,-3.4062,-3.4057,-3.4052,-3.4191,-3.42,-3.4209,0,0,0,0,0,0,0,0,0,0,0,0,0,0,0,-3.4017,-3.4019,0,-3.4153,-3.4155,-3.4156,-3.4066,-3.4062,-3.4058,-3.4054,-3.4193,-3.4201,-3.4208,0,0,0,0,0,0,0,0,0,0,0,0,0,0,0,0,0,0,0,0,0,0,0,0,0,0,0,0,0,0,0,0,0,0,0,0,0,0,0,0,0,0,0,0,0,0,0,0,0,0,0,0,0,0,0,0,0,0,0,0,0,0,0,0,0,0,0,0,0]}],[{"header":{"parameterUnit":"kt","parameterCategory":2,"dx":1,"dy":1,"la1":30.253999710083008,"la2":30.299108505249023,"lo1":-89.0895004272461,"lo2":-89.04439544677734,"nx":28,"ny":28,"refTime":"2022-09-23T21:00:00:Z","depth":0,"parameterNumber":2,"parameterNumberName":"V-component_of_WINDS"},"data":[-0.7573,-0.7493,-0.7482,-0.7386,-0.7361,-0.7294,-0.7266,-0.723,-0.72,-0.7119,-0.7072,-0.7055,-0.7021,-0.6962,-0.6911,-0.6905,-0.6883,-0.6861,-0.6857,-0.6964,-0.6978,-0.6991,-0.7008,-0.6857,-0.6857,-0.6747,-0.6746,-0.6745,-0.7647,-0.762,-0.7567,-0.7508,-0.7463,-0.7476,-0.7432,-0.7393,-0.7333,-0.7296,-0.7249,-0.7179,-0.7122,-0.7097,-0.7041,-0.7004,-0.7008,-0.699,-0.6991,-0.6985,-0.7099,-0.7117,-0.6987,-0.6987,-0.6987,-0.6987,-0.6987,-0.6987,-0.7779,-0.7732,-0.769,-0.7633,-0.7601,-0.7563,-0.7517,-0.7496,-0.7446,-0.7386,-0.7386,-0.7319,-0.7281,-0.7212,-0.7187,-0.7135,-0.7154,-0.7131,-0.7125,-0.7119,-0.7111,-0.7265,-0.7126,-0.7126,-0.7126,-0.7127,-0.7127,0,-0.7871,-0.7865,-0.7815,-0.776,-0.7719,-0.7676,-0.7636,-0.7608,-0.7596,-0.7555,-0.7495,-0.7459,-0.7389,-0.7332,-0.728,-0.7259,-0.727,-0.7272,-0.7256,-0.7252,-0.7255,-0.725,-0.7433,-0.7276,-0.7277,-0.7278,-0.7279,-0.7279,-0.8001,-0.7949,-0.7903,-0.7868,-0.7844,-0.779,-0.7756,-0.7749,-0.7714,-0.7665,-0.7625,-0.7568,-0.7522,-0.743,-0.741,-0.7358,-0.7363,-0.7303,-0.7356,-0.7354,-0.7358,-0.736,-0.7354,-0.7293,-0.7291,-0.729,-0.7288,0,-0.8074,-0.8059,-0.7977,-0.7937,-0.7925,-0.7871,-0.7838,-0.7792,-0.7779,-0.7715,-0.77,-0.768,-0.7622,-0.7612,-0.7546,-0.7542,-0.7452,-0.746,-0.7463,-0.7464,-0.7407,-0.7411,-0.723,-0.7205,-0.7365,-0.7363,-0.7362,0,-0.8178,-0.8111,-0.8092,-0.8046,-0.7971,-0.7966,-0.7893,-0.7875,-0.7843,-0.7792,-0.7804,-0.7757,-0.7752,-0.7703,-0.7698,-0.7623,-0.7612,-0.7604,-0.7602,-0.7601,-0.7601,-0.7581,-0.7587,-0.7607,-0.7607,-0.7608,-0.7609,0,-0.8292,-0.8206,-0.813,-0.8108,-0.8061,-0.8025,-0.8004,-0.7969,-0.7937,-0.7894,-0.7872,-0.7823,-0.7796,-0.7758,-0.7751,-0.7786,-0.7661,-0.7708,-0.7652,-0.7652,-0.7624,-0.7625,-0.7469,-0.761,-0.761,-0.7611,-0.7611,0,-0.8374,-0.8329,-0.8223,-0.8182,-0.816,-0.8112,-0.8061,-0.8018,-0.798,-0.7973,-0.794,-0.7947,-0.7883,-0.793,-0.7842,-0.7889,-0.7861,-0.7849,-0.7845,-0.7837,-0.7889,-0.7799,-0.7654,-0.7637,-0.7831,-0.7833,-0.7834,0,-0.8507,-0.8397,-0.8392,-0.8292,-0.8239,-0.8254,-0.8201,-0.8168,-0.8154,-0.8108,-0.8094,-0.8043,-0.8076,-0.8058,-0.8016,-0.8,-0.7938,-0.8008,-0.794,-0.7938,-0.7946,-0.7813,-0.7793,-0.7687,-0.7858,-0.7855,-0.7853,0,-0.8609,-0.8552,-0.8535,-0.8509,-0.8465,-0.8422,-0.8361,-0.8308,-0.8277,-0.8241,-0.8188,-0.8118,-0.8139,-0.8111,-0.8113,-0.807,-0.798,-0.8099,-0.8098,-0.8075,-0.787,-0.785,-0.7832,-0.7991,-0.7988,-0.7985,-0.7872,0,-0.8729,-0.8674,-0.8627,-0.8573,-0.8539,-0.8477,-0.8466,-0.8432,-0.8435,-0.8423,-0.8348,-0.8321,-0.827,-0.8249,-0.8254,-0.8159,-0.8173,-0.8197,-0.8241,-0.8155,-0.8117,-0.8102,-0.8298,-0.8299,-0.83,-0.8301,0,0,-0.8859,-0.8779,-0.8778,-0.8718,-0.8689,-0.8707,-0.8642,-0.8617,-0.8565,-0.8544,-0.8569,-0.8465,-0.8443,-0.8353,-0.8326,-0.8306,-0.8288,-0.8319,-0.8197,-0.8185,-0.8175,-0.8134,-0.8119,-0.8303,-0.8304,-0.8304,-0.8304,0,-0.89,-0.8876,-0.8812,-0.8784,-0.8744,-0.8735,-0.8719,-0.8684,-0.8673,-0.8601,-0.8618,-0.8572,-0.8492,-0.8464,-0.844,-0.833,-0.8345,-0.8316,-0.8258,-0.8208,-0.8195,-0.8184,-0.8141,-0.8127,-0.8307,-0.8307,-0.8307,0,-0.8996,-0.8969,-0.8938,-0.8874,-0.8849,-0.8796,-0.8839,-0.8783,-0.8744,-0.8769,-0.8697,-0.8682,-0.8646,-0.8563,-0.8527,-0.8548,-0.8398,-0.8445,-0.8438,-0.8434,-0.8385,-0.8369,-0.8356,-0.8538,-0.8539,-0.854,0,0,-0.9034,-0.8983,-0.8954,-0.8882,-0.8865,-0.8851,-0.8823,-0.8824,-0.8791,-0.8777,-0.8757,-0.8725,-0.8678,-0.8647,-0.8603,-0.8515,-0.8506,-0.8474,-0.8463,-0.8454,-0.8445,-0.8394,-0.8378,-0.8543,-0.8543,-0.8543,0,0,-0.9052,-0.9014,-0.9024,-0.894,-0.8907,-0.8874,-0.8831,-0.8843,-0.8802,-0.8808,-0.8809,-0.8801,-0.8725,-0.8709,-0.8752,-0.8618,-0.8662,-0.8652,-0.8631,-0.8617,-0.8606,-0.861,-0.8793,0,0,0,0,0,-0.9089,-0.9019,-0.9028,-0.9012,-0.8934,-0.8869,-0.8859,-0.8857,-0.8887,-0.8853,-0.8838,-0.8858,-0.8732,-0.877,-0.8755,-0.8707,-0.8583,-0.8576,-0.8569,-0.8521,-0.8507,-0.8495,0,0,0,0,0,0,-0.9083,-0.9064,-0.903,-0.8994,-0.8976,-0.8872,-0.8922,-0.892,-0.8891,-0.8896,-0.886,-0.8856,-0.8855,-0.8777,-0.8764,-0.8718,-0.8798,-0.858,-0.8574,-0.8569,-0.8516,-0.8504,-0.8494,0,0,0,0,0,-0.9078,-0.9063,-0.8936,-0.8995,-0.898,-0.8961,-0.8925,-0.8923,-0.8901,-0.8878,-0.8876,-0.8902,-0.8854,-0.8842,-0.8769,-0.8724,-0.8807,-0.8802,-0.8576,-0.8572,-0.8567,-0.851,0,0,0,0,0,0,-0.9074,-0.9061,-0.8933,-0.8929,-0.9022,-0.8967,-0.8958,-0.8926,-0.8886,-0.8882,-0.8922,-0.8926,-0.8852,-0.8844,-0.8835,-0.8726,-0.8814,-0.8809,-0.8806,-0.8573,-0.8569,-0.8566,0,0,0,0,0,0,-0.9069,-0.9057,-0.8931,-0.8965,-0.8964,-0.8972,-0.8964,-0.8903,-0.8885,-0.8932,-0.8934,-0.8924,-0.8866,-0.8844,-0.8837,-0.8742,-0.882,-0.8815,-0.8812,-0.881,-0.857,-0.8567,0,0,0,0,0,0,-0.9064,-0.9053,-0.8966,-0.8965,-0.8965,-0.8912,-0.8918,-0.8838,-0.8913,-0.8933,-0.892,-0.8923,-0.8865,-0.8859,-0.8839,-0.8746,-0.8743,-0.882,-0.8817,-0.8814,-0.8813,0,0,0,0,0,0,0,-0.906,-0.9131,-0.8961,-0.8966,-0.8965,-0.8885,-0.8884,-0.8882,-0.8913,-0.8916,-0.8919,-0.8921,-0.8848,-0.8843,-0.8837,-0.875,0,0,-0.8821,-0.8818,0,0,0,0,0,0,0,0,-0.9136,-0.9132,-0.8961,-0.896,-0.8959,-0.8885,-0.8884,-0.8883,-0.8914,-0.8916,-0.8918,-0.892,-0.8847,-0.8842,-0.8838,0,0,0,0,0,0,0,0,0,0,0,0,0,0,0,-0.8961,-0.896,0,-0.8885,-0.8884,-0.8883,-0.8914,-0.8916,-0.8918,-0.8919,-0.8845,-0.8842,-0.8838,0,0,0,0,0,0,0,0,0,0,0,0,0,0,0,0,0,0,0,0,0,0,0,0,0,0,0,0,0,0,0,0,0,0,0,0,0,0,0,0,0,0,0,0,0,0,0,0,0,0,0,0,0,0,0,0,0,0,0,0,0,0,0,0,0,0,0,0,0]}]]]